カタログに戻る

WESTFORD NEEDLES

運用中PO
NORAD 2378·DEBRIS·🇺🇸 United States

打ち上げ May 9, 1963 から Vandenberg Space Force Base

Loading…

次のパス (今後24時間)

TLE

経年Source: Space-Track

元期: Sep 5, 2026, 16:51 UTC

1 02378U 63014Y   26248.70259853  .00000575  00000-0  25344+0 0  9999
2 02378  87.3554 150.7328 0282689  87.1164 276.2003  8.66739967  2229

AllMySatでWESTFORD NEEDLESをリアルタイム追跡

Download on the App Store